Regional Weather Roundup
Issued by NWS Goodland, KS

Home | Current Version | Previous Version | Text Only | Print | Product List | Glossary Off
Versions: 1 2 3 4 5 6 7 8 9 10 11 12 13 14 15 16 17 18 19 20 21 22 23 24 25 26 27 28 29 30 31 32 33 34 35 36 37 38 39 40 41 42 43 44 45 46 47 48 49 50

945
ASUS43 KGLD 041008
RWRGLD

GOODLAND FORECAST AREA HOURLY WEATHER ROUNDUP
NATIONAL WEATHER SERVICE GOODLAND KS
400 AM MDT WED MAY 04 2016

...OFFICIAL OBSERVATIONS...

CITY           SKY/WX    TMP DP  RH WIND       PRES   REMARKS
GOODLAND KS    CLEAR     42  34  73 W10       30.15S
HILL CITY KS   CLEAR     47  40  76 W8        30.06S
IMPERIAL NEB   CLEAR     48  38  68 NW10      30.13S
MCCOOK NEB     CLEAR     44  39  82 W10       30.08S
AKRON CO       CLEAR     43  36  76 W10       30.20S
BURLINGTON CO  CLEAR     42  33  70 W10       30.19R
LIMON CO       CLEAR     39  34  82 NW7       30.25S
$$

...UNOFFICIAL OBSERVATIONS...

CITY           SKY/WX    TMP DP  RH WIND       PRES   REMARKS
COLBY KS       CLEAR     45  39  81 W10       30.13S
NORTON KS      CLEAR     48  36  61 W14       30.05R
SHARON SPRINGS   N/A     41  36  81 W9          N/A
TRIBUNE KS     CLEAR     43  36  75 W7        30.18
KIT CARSON CO    N/A     41  35  77 MISG        N/A
YUMA CO          N/A     37  34  89 CALM        N/A
$$




USA.gov is the U.S. government's official web portal to all federal, state and local government web resources and services.